Lexington Weather

Lexington, Massachusetts, USA

73°F
9/22/2021 1:46pm 
  • Lexington Conditions: Overcast
  • Temperature: 73.0°F / 22.8°CColder 2.4°F than last hour.
  • Dew Point: 68.2°FDecreased 0.5°Fsince last hour.
  • Relative Humidity: 85%Increased 5.0% since last hour.
  • Wind: Wind from WNW WNW 1 mph, 10-min avg: 3 mph, gust: 12 mph
  • Barometer: 30.10 in Steady
  • Visibility: 10 miles
  • Rain Today: 0.00 in
  •   

Regional Weather Roundup
for Boston / Norton, MA

        
000
ASUS41 KBOX 170604
RWRBOX

REGIONAL WEATHER ROUNDUP
NATIONAL WEATHER SERVICE BOSTON/NORTON MA
200 AM EDT FRI SEP 17 2021

NOTE:  "FAIR" INDICATES FEW OR NO CLOUDS BELOW 12,000 FEET WITH NO 
SIGNIFICANT WEATHER AND/OR OBSTRUCTIONS TO VISIBILITY.

MAZALL-170700-
EASTERN MASSACHUSETTS
  
CITY           SKY/WX    TMP DP  RH WIND       PRES   REMARKS
BOSTON         CLOUDY    66  61  84 N6        30.31F                  
6HR MIN TEMP:  66; 6HR MAX TEMP:  67; 6HR PCP: TRACE;                

BEVERLY        CLOUDY    64  33  31 CALM      30.30F                  
LAWRENCE       CLOUDY    62  61  96 N5        30.34F                  
BEDFORD        CLOUDY    63  61  93 CALM      30.30F                  
BLUE HILL      NOT AVBL                                               
NORWOOD        PTCLDY    64  61  90 NE3       30.30F                  
MARSHFIELD     CLOUDY    66  63  88 E7        30.31R                  
PLYMOUTH       CLOUDY    65  63  93 E8        30.31R                  
TAUNTON        CLOUDY    65  63  93 CALM      30.30S                  
NEW BEDFORD    CLOUDY    66  64  93 NE8       30.29S                  
$$

MAZALL-170700-
CAPE COD AND THE ISLANDS
  
CITY           SKY/WX    TMP DP  RH WIND       PRES   REMARKS
FALMOUTH       FOG       66  66 100 NE14      30.29F VSB 1            
HYANNIS        CLOUDY    66  66 100 NE7       30.28S                  
CHATHAM        CLOUDY    66  66 100 NE7       30.30F FOG              
PROVINCETOWN   CLOUDY    65  64  97 E10       30.31S                  
NANTUCKET      CLOUDY    68  66  93 E9        30.28F                  
MARTHAS VNYRD  CLOUDY    68  68 100 E12       30.28S                  
$$
 
MAZALL-170700-
CENTRAL AND WESTERN MASSACHUSETTS
  
CITY           SKY/WX    TMP DP  RH WIND       PRES   REMARKS
WORCESTER      CLOUDY    60  58  92 NE7       30.33F                  
6HR MIN TEMP:  60; 6HR MAX TEMP:  63;                                

FITCHBURG      CLOUDY    62  58  86 N3        30.33F                  
ORANGE         CLOUDY    63  60  90 CALM      30.33S                  
SPRINGFIELD    CLOUDY    65  62  88 NE6       30.29F                  
WESTFIELD      LGT RAIN  66  65  96 N5        30.30F                  
NORTH ADAMS    CLOUDY    66  61  84 E8        30.30S                  
PITTSFIELD     CLOUDY    64  61  90 E5        30.30S                  
$$
 
RIZALL-170700-
RHODE ISLAND
  
CITY           SKY/WX    TMP DP  RH WIND       PRES   REMARKS
PROVIDENCE     CLOUDY    66  63  90 NE10      30.30S                  
6HR MIN TEMP:  66; 6HR MAX TEMP:  67;                                

NEWPORT        CLOUDY    66  63  90 NE10      30.28F                  
BLOCK ISLAND   CLOUDY    66  65  96 NE13      30.28S                  
SMITHFIELD     CLOUDY    63  62  97 NE5       30.32S                  
WESTERLY       CLOUDY    64  64 100 NE6       30.27S                  
$$
 
CTZALL-170700-
CONNECTICUT
  
CITY           SKY/WX    TMP DP  RH WIND       PRES   REMARKS
BRADLEY INTL   CLOUDY    65  62  90 NE9       30.30S                  
6HR MIN TEMP:  65; 6HR MAX TEMP:  71;                                

HARTFORD       CLOUDY    68  61  78 N5        30.28F                  
BRIDGEPORT     CLOUDY    70  66  87 NE13      30.25F                  
DANBURY        CLOUDY    70  65  84 E7        30.27F                  
GROTON         CLOUDY    67  63  87 NE10      30.26F                  
NEW HAVEN      CLOUDY    70  66  87 NE8       30.26S                  
CHESTER        CLOUDY    66  64  94 VRB5      30.28S                  
MERIDEN        CLOUDY    67  62  84 N6        30.27F                  
WILLIMANTIC    CLOUDY    64  61  90 N5        30.29F                  
OXFORD         CLOUDY    65  64  97 NE10      30.29S                  
$$

MEZ002-015-021-024-NHZ003-005-008-011-012-014-VTZ005-008-170700-
NORTHERN NEW ENGLAND
  
CITY           SKY/WX    TMP DP  RH WIND       PRES   REMARKS
PORTLAND ME    CLEAR     55  54  96 N3        30.34F                  
6HR MIN TEMP:  55; 6HR MAX TEMP:  61;                                

BANGOR ME      CLEAR     51  50  96 CALM      30.37S                  
CONCORD NH     CLEAR     57  55  93 CALM      30.34R                  
MANCHESTER NH  PTCLDY    62  58  86 N3        30.32S                  
NASHUA NH      PTCLDY    60  60 100 NW5       30.33F                  
PORTSMOUTH NH  MOCLDY    59  57  91 N6        30.34S                  
JAFFREY NH     CLEAR     57  57 100 CALM      30.34F                  
KEENE NH       CLEAR     58  57  97 CALM      30.32F                  
BURLINGTON VT  CLOUDY    61  57  87 S5        30.27S                  
MT. WASHINGTON FOG       46  46 100 W31         N/A  VSB 1/16         
$$

NYZ052-076-170700-
EASTERN NEW YORK
  
CITY           SKY/WX    TMP DP  RH WIND       PRES   REMARKS
ALBANY         MOCLDY    64  63  96 CALM      30.26S                  
6HR MIN TEMP:  63; 6HR MAX TEMP:  69;                                

NEW YORK CITY  CLOUDY    73  67  81 NE12      30.22F                  
6HR MIN TEMP:  72; 6HR MAX TEMP:  74;                                

$$
 
ANZALL-170700-
MARINE OBSERVATIONS
  
STATION/POSITION TIME  TEMP    WIND        PRES    VSBY  WAVE
                       AIR SEA DIR/SP/G                  HT/PER
                 (UTC) (F)     (DEG/KT/KT) (MB)    (MI)  (FT/S)
BOSTON BUOY      0540      66   40/ 10/ 12 1026.7F
BUZZARDS BAY     0500           50/ 15/ 17 1026.4F
NANTUCKET SOUND  0540   69 72   70/ 16/ 19 1025.5S
MASS BAY-STELLWA 0504   65      50/ 10/ 12 1026.2F  1 7/8  2/ 4
ISLE OF SHOALS   0500   64      20/  4/  5 1026.6S
S OF BLOCK IS    0526      68                N/A           3/ 7
$$

......................KEY.........................
  SKY/WX - SKY CONDITION/PRESENT WEATHER
  TMP    - TEMPERATURE IN FAHRENHEIT
  DWPT   - DEWPOINT IN FAHRENHEIT
  RH     - RELATIVE HUMIDITY IN PERCENT
  WIND   - DIRECTION AND SPEED IN MPH
  PRES   - MEAN SEA LEVEL PRESSURE IN INCHES OF HG
  WCI    - WIND CHILL INDEX
  VSB    - VISIBILITY IN MILES
  HX     - HEAT INDEX
  TC     - TEMPERATURE IN CELSIUS
  VRB    - VARIABLE WIND DIRECTION
  N/A    - NOT AVAILABLE
  
      

Other recent Regional Weather Roundups

Wed Sep 22, 1:04pm

Wed Sep 22, 12:05pm

Wed Sep 22, 11:04am

Wed Sep 22, 10:04am

Wed Sep 22, 9:04am

Wed Sep 22, 8:04am

Wed Sep 22, 7:04am

Wed Sep 22, 6:04am

Wed Sep 22, 5:04am

Wed Sep 22, 4:04am

Wed Sep 22, 3:04am

Wed Sep 22, 2:04am

Wed Sep 22, 1:04am

Wed Sep 22, 12:04am

Tue Sep 21, 11:04pm

Tue Sep 21, 10:04pm

Tue Sep 21, 9:04pm

Tue Sep 21, 8:04pm

Tue Sep 21, 7:04pm

Tue Sep 21, 6:04pm

Tue Sep 21, 5:04pm

Tue Sep 21, 4:04pm

Tue Sep 21, 3:04pm

Tue Sep 21, 2:04pm

Tue Sep 21, 1:04pm

Tue Sep 21, 12:04pm

Tue Sep 21, 11:04am

Tue Sep 21, 10:04am

Tue Sep 21, 9:04am

Tue Sep 21, 8:04am

Tue Sep 21, 7:04am

Tue Sep 21, 6:04am

Tue Sep 21, 5:04am

Tue Sep 21, 4:04am

Tue Sep 21, 3:04am

Tue Sep 21, 2:04am

Tue Sep 21, 1:04am

Tue Sep 21, 12:04am

Mon Sep 20, 11:04pm

Mon Sep 20, 10:04pm

Mon Sep 20, 9:04pm

Mon Sep 20, 8:04pm

Mon Sep 20, 7:04pm

Mon Sep 20, 6:04pm

Mon Sep 20, 5:04pm

Mon Sep 20, 4:04pm

Mon Sep 20, 3:04pm

Mon Sep 20, 2:04pm

Mon Sep 20, 1:04pm

Mon Sep 20, 12:04pm

Mon Sep 20, 11:04am

Mon Sep 20, 10:04am

Mon Sep 20, 9:04am

Mon Sep 20, 7:04am

Mon Sep 20, 6:04am

Mon Sep 20, 5:04am

Mon Sep 20, 4:04am

Mon Sep 20, 3:04am

Mon Sep 20, 2:04am

Mon Sep 20, 1:04am

Mon Sep 20, 12:04am

Sun Sep 19, 11:04pm

Sun Sep 19, 10:04pm

Sun Sep 19, 9:04pm

Sun Sep 19, 8:04pm

Sun Sep 19, 7:04pm

Sun Sep 19, 6:04pm

Sun Sep 19, 5:04pm

Sun Sep 19, 4:04pm

Sun Sep 19, 3:04pm

Sun Sep 19, 2:05pm

Sun Sep 19, 1:04pm

Sun Sep 19, 12:04pm

Sun Sep 19, 11:04am

Sun Sep 19, 10:05am

Sun Sep 19, 9:04am

Sun Sep 19, 8:04am

Sun Sep 19, 7:04am

Sun Sep 19, 6:04am

Sun Sep 19, 5:04am

Sun Sep 19, 4:04am

Sun Sep 19, 3:04am

Sun Sep 19, 2:04am

Sun Sep 19, 1:04am

Sun Sep 19, 12:04am

Sat Sep 18, 11:05pm

Sat Sep 18, 10:04pm

Sat Sep 18, 9:04pm

Sat Sep 18, 8:04pm

Sat Sep 18, 7:04pm

Sat Sep 18, 6:04pm

Sat Sep 18, 5:04pm

Sat Sep 18, 4:04pm

Sat Sep 18, 3:04pm

Sat Sep 18, 2:04pm

Sat Sep 18, 1:04pm

Sat Sep 18, 12:04pm

Sat Sep 18, 11:04am

Sat Sep 18, 10:04am

Sat Sep 18, 9:04am

Sat Sep 18, 8:04am

Sat Sep 18, 7:04am

Sat Sep 18, 6:04am

Sat Sep 18, 5:04am

Sat Sep 18, 4:04am

Sat Sep 18, 3:04am

Sat Sep 18, 2:04am

Sat Sep 18, 1:04am

Sat Sep 18, 12:04am

Fri Sep 17, 11:04pm

Fri Sep 17, 10:04pm

Fri Sep 17, 9:04pm

Fri Sep 17, 8:04pm

Fri Sep 17, 7:04pm

Fri Sep 17, 6:04pm

Fri Sep 17, 5:04pm

Fri Sep 17, 4:04pm

Fri Sep 17, 3:04pm

Fri Sep 17, 2:04pm

Fri Sep 17, 1:04pm

Fri Sep 17, 12:05pm

Fri Sep 17, 11:04am

Fri Sep 17, 10:04am

Fri Sep 17, 9:04am

Fri Sep 17, 8:04am

Fri Sep 17, 7:04am

Fri Sep 17, 6:04am

Fri Sep 17, 5:04am

Fri Sep 17, 4:04am

Fri Sep 17, 3:04am

Fri Sep 17, 1:04am

Fri Sep 17, 12:04am

Thu Sep 16, 11:04pm

Thu Sep 16, 10:04pm

Thu Sep 16, 9:04pm

Thu Sep 16, 8:04pm

Thu Sep 16, 7:04pm

Thu Sep 16, 6:04pm

Thu Sep 16, 5:04pm

Thu Sep 16, 4:04pm

Thu Sep 16, 3:04pm

Thu Sep 16, 2:04pm

Thu Sep 16, 1:05pm

Thu Sep 16, 12:04pm

Thu Sep 16, 11:05am

Thu Sep 16, 10:05am

Thu Sep 16, 9:04am

Thu Sep 16, 8:04am

Thu Sep 16, 7:04am

Thu Sep 16, 6:04am

Thu Sep 16, 5:04am

Thu Sep 16, 4:04am

Thu Sep 16, 3:04am

Thu Sep 16, 2:04am

Thu Sep 16, 1:04am

Thu Sep 16, 12:04am

Wed Sep 15, 11:04pm

Wed Sep 15, 10:04pm

Wed Sep 15, 9:04pm

Wed Sep 15, 8:04pm

Wed Sep 15, 7:04pm

Wed Sep 15, 6:04pm

Wed Sep 15, 5:05pm

Wed Sep 15, 4:04pm

Wed Sep 15, 3:04pm

Wed Sep 15, 2:04pm

Meta data:

ID: 24bc0753-4633-4d0c-b39b-1cb9d835be11
Link: https://api.weather.gov/products/24bc0753-4633-4d0c-b39b-1cb9d835be11